Date,TemperatureHighF,TemperatureAvgF,TemperatureLowF,DewpointHighF,DewpointAvgF,DewpointLowF,HumidityHigh,HumidityAvg,HumidityLow,PressureMaxIn,PressureMinIn,WindSpeedMaxMPH,WindSpeedAvgMPH,GustSpeedMaxMPH,PrecipitationSumIn
2013-6-1,85,75,66,68,66,64,94,75,52,30.09,29.96,7,2,12,0.00
2013-6-2,78,70,66,71,67,65,97,89,77,30.00,29.86,9,2,14,2.02
2013-6-3,84,72,65,72,68,64,97,87,58,29.90,29.80,5,1,6,0.00
2013-6-4,84,74,66,70,68,65,97,81,55,30.00,29.89,8,3,12,0.00
2013-6-5,82,72,68,72,68,65,96,88,71,30.03,29.91,9,4,10,0.29
2013-6-6,76,70,65,72,68,64,97,92,83,29.95,29.75,7,2,12,0.50
2013-6-7,83,71,67,73,68,66,97,92,70,29.79,29.62,10,3,12,0.32
2013-6-8,82,73,68,71,68,67,97,84,61,30.04,29.78,6,2,7,0.00
2013-6-9,85,72,65,74,69,64,97,90,65,30.09,30.00,6,2,8,0.32
2013-6-10,78,71,67,72,69,64,97,92,80,30.01,29.88,10,4,18,0.75
2013-6-11,88,78,68,73,70,67,97,79,52,29.96,29.87,8,4,14,0.02
2013-6-12,91,79,65,78,71,64,97,77,55,29.98,29.87,7,2,10,0.00
2013-6-13,90,80,70,75,72,68,94,76,55,29.87,29.65,12,6,19,0.33
2013-6-14,84,74,62,68,61,56,96,68,41,29.98,29.73,10,3,10,0.00
2013-6-15,83,71,58,65,61,56,95,73,47,30.10,29.99,5,1,7,0.00
2013-6-16,84,74,62,70,66,61,96,78,53,30.12,29.97,8,3,11,0.01
2013-6-17,84,75,69,74,70,67,96,85,67,30.01,29.89,7,3,9,0.18
2013-6-18,84,75,70,75,71,68,95,87,71,29.93,29.75,10,4,12,0.07
2013-6-19,82,74,68,71,68,65,95,81,63,30.05,29.85,9,3,10,0.00
2013-6-20,82,73,64,70,66,63,97,82,58,30.17,30.04,10,3,13,0.00
2013-6-21,83,72,63,67,64,62,95,78,51,30.22,30.11,7,3,10,0.00
2013-6-22,84,73,62,70,64,60,96,75,48,30.18,30.07,7,2,12,0.00
2013-6-23,86,76,67,73,69,66,96,82,60,30.16,30.06,8,1,8,0.03
2013-6-24,86,77,67,75,71,66,97,82,61,30.17,30.05,6,2,10,0.54
2013-6-25,87,77,70,75,71,68,96,82,57,30.10,29.97,8,3,11,0.00
2013-6-26,88,78,70,75,72,68,97,83,62,30.00,29.87,7,3,9,0.00
2013-6-27,88,80,72,76,73,71,96,82,62,29.91,29.68,10,5,13,0.06
2013-6-28,92,80,68,77,71,67,96,78,52,29.74,29.56,11,3,11,0.08
2013-6-29,87,77,70,74,70,65,97,81,50,29.66,29.58,8,3,10,0.00
2013-6-30,82,73,68,74,70,66,95,89,70,29.78,29.65,5,2,7,0.03